CW0845 Weather Reports


Display with metric or nautical units.
time (UTC)temp
F
wind
direction
speed
MPH
gust
MPH
rain 1hr
in
rain 24hr
in
rain mn
in
humidity
%
barometer
mb
20260506174516 62 182 5.0 10.0 0.04 0.04 0.04 86 1007.1
20260506174007 62 194 4.0 11.0 0.04 0.04 0.04 86 1007.0
20260506173507 62 194 4.0 11.0 0.04 0.04 0.04 85 1007.2
20260506173021 63 191 4.0 12.0 0.03 0.03 0.03 84 1007.3
20260506172509 63 103 5.0 15.0 0.02 0.02 0.02 83 1007.5
20260506172011 64 198 4.0 15.0 0.02 0.02 0.02 81 1007.7
20260506171535 65 150 4.0 13.0 0.01 0.01 0.01 79 1007.6
20260506171008 65 169 6.0 13.0 0.00 0.00 0.00 77 1007.9
20260506170512 66 227 6.0 13.0 0.00 0.00 0.00 76 1007.9
20260506170027 66 175 6.0 10.0 0.00 0.00 0.00 76 1007.7
20260506165508 67 196 5.0 13.0 0.00 0.00 0.00 74 1007.7
20260506165010 67 219 7.0 13.0 0.00 0.00 0.00 73 1007.7
20260506164527 67 162 5.0 11.0 0.00 0.00 0.00 72 1007.7
20260506164016 67 203 4.0 9.0 0.00 0.00 0.00 72 1007.6
20260506163513 68 195 5.0 13.0 0.00 0.00 0.00 72 1007.7
20260506163030 68 217 4.0 13.0 0.00 0.00 0.00 71 1007.7
20260506162506 68 155 6.0 13.0 0.00 0.00 0.00 70 1007.6
20260506162012 68 164 4.0 14.0 0.00 0.00 0.00 69 1007.7
20260506161524 68 180 6.0 14.0 0.00 0.00 0.00 69 1007.8
20260506161011 68 143 5.0 10.0 0.00 0.00 0.00 70 1007.9
20260506160512 68 189 4.0 11.0 0.00 0.00 0.00 70 1008.0
20260506160030 67 162 4.0 11.0 0.00 0.00 0.00 71 1008.1
20260506155509 67 159 4.0 11.0 0.00 0.00 0.00 71 1008.1
20260506155013 67 217 4.0 11.0 0.00 0.00 0.00 71 1008.3
20260506154536 66 197 7.0 10.0 0.00 0.00 0.00 72 1008.4
20260506154019 66 173 3.0 13.0 0.00 0.00 0.00 73 1008.5
20260506153511 66 156 4.0 14.0 0.00 0.00 0.00 72 1008.5
20260506153027 66 150 6.0 14.0 0.00 0.00 0.00 73 1008.6
20260506152510 66 173 5.0 8.0 0.00 0.00 0.00 73 1008.7
20260506152011 65 155 3.0 11.0 0.00 0.00 0.00 74 1008.7
20260506151523 65 222 5.0 10.0 0.00 0.00 0.00 73 1008.8
20260506151010 65 211 5.0 12.0 0.00 0.00 0.00 74 1008.8
20260506150510 65 183 6.0 12.0 0.00 0.00 0.00 74 1008.8
20260506150026 65 184 5.0 12.0 0.00 0.00 0.00 75 1009.0
20260506145507 64 165 6.0 10.0 0.00 0.00 0.00 75 1009.0
20260506145009 64 197 6.0 10.0 0.00 0.00 0.00 75 1009.0
20260506144527 64 164 4.0 10.0 0.00 0.00 0.00 75 1008.9
20260506144012 64 200 3.0 17.0 0.00 0.00 0.00 75 1009.0
20260506143511 64 178 7.0 17.0 0.00 0.00 0.00 75 1009.0
20260506143028 64 222 7.0 14.0 0.00 0.00 0.00 75 1009.0
20260506142511 64 182 7.0 14.0 0.00 0.00 0.00 75 1009.0
20260506142012 64 203 7.0 13.0 0.00 0.00 0.00 75 1009.0
20260506141528 64 143 8.0 13.0 0.00 0.00 0.00 75 1008.9
20260506140511 63 173 6.0 14.0 0.00 0.00 0.00 76 1008.9
20260506140024 63 179 6.0 16.0 0.00 0.00 0.00 76 1009.0
20260506135507 63 212 9.0 25.0 0.00 0.00 0.00 76 1008.9
20260506135009 63 191 6.0 25.0 0.00 0.00 0.00 76 1008.7
20260506134524 63 208 6.0 16.0 0.00 0.00 0.00 77 1008.7
20260506134013 63 192 6.0 16.0 0.00 0.00 0.00 78 1008.7
20260506133511 62 184 7.0 14.0 0.00 0.00 0.00 77 1008.8
20260506133024 62 155 8.0 14.0 0.00 0.00 0.00 77 1008.8
20260506132510 62 167 4.0 12.0 0.00 0.00 0.00 78 1008.8
20260506132015 62 105 4.0 15.0 0.00 0.00 0.00 78 1008.7
20260506131526 62 209 7.0 15.0 0.00 0.00 0.00 78 1008.8
20260506131010 62 205 6.0 11.0 0.00 0.00 0.00 78 1008.9
20260506130520 62 159 6.0 11.0 0.00 0.00 0.00 78 1008.9
20260506130024 62 171 4.0 13.0 0.00 0.00 0.00 78 1008.9
20260506125507 61 168 6.0 13.0 0.00 0.00 0.00 79 1008.9
20260506125010 61 180 4.0 12.0 0.00 0.00 0.00 79 1008.9
20260506124524 61 169 5.0 12.0 0.00 0.00 0.00 80 1009.1
20260506124010 61 198 6.0 10.0 0.00 0.00 0.00 79 1009.3
20260506123511 61 169 5.0 11.0 0.00 0.00 0.00 80 1009.2
20260506123027 61 209 5.0 11.0 0.00 0.00 0.00 80 1009.4
20260506122511 60 212 5.0 10.0 0.00 0.00 0.00 80 1009.4
20260506122010 60 205 3.0 14.0 0.00 0.00 0.00 80 1009.4
20260506121528 60 237 5.0 14.0 0.00 0.00 0.00 81 1009.4
20260506121011 60 202 4.0 8.0 0.00 0.00 0.00 81 1009.4
20260506120514 60 213 4.0 16.0 0.00 0.00 0.00 81 1009.3
20260506120032 60 229 4.0 16.0 0.00 0.00 0.00 81 1009.4
20260506115510 60 167 7.0 14.0 0.00 0.00 0.00 81 1009.5
20260506115013 59 243 6.0 13.0 0.00 0.00 0.00 81 1009.3
20260506114526 59 190 7.0 12.0 0.00 0.00 0.00 82 1009.3
20260506114009 59 252 4.0 10.0 0.00 0.00 0.00 82 1009.3
20260506113511 59 173 5.0 12.0 0.00 0.00 0.00 82 1009.3
20260506113028 59 173 4.0 12.0 0.00 0.00 0.00 82 1009.5
20260506112510 59 217 5.0 13.0 0.00 0.00 0.00 82 1009.4
20260506112010 59 205 5.0 13.0 0.00 0.00 0.00 82 1009.4
20260506111529 59 217 4.0 11.0 0.00 0.00 0.00 82 1009.4
20260506111010 59 205 4.0 12.0 0.00 0.00 0.00 82 1009.4
20260506110507 58 137 4.0 12.0 0.00 0.00 0.00 83 1009.4
20260506110028 58 207 4.0 11.0 0.00 0.00 0.00 83 1009.7
20260506105512 58 173 7.0 12.0 0.00 0.00 0.00 84 1009.7
20260506105011 57 173 5.0 12.0 0.00 0.00 0.00 84 1009.7
20260506104528 57 209 5.0 11.0 0.00 0.00 0.00 84 1009.7
20260506104010 57 186 5.0 12.0 0.00 0.00 0.00 84 1009.7
20260506103508 57 178 4.0 12.0 0.00 0.00 0.00 84 1009.8
20260506103028 57 204 6.0 10.0 0.00 0.00 0.00 84 1009.7
20260506102510 57 204 6.0 10.0 0.00 0.00 0.00 84 1009.6
20260506102012 57 184 6.0 10.0 0.00 0.00 0.00 84 1009.5
20260506101528 57 193 4.0 8.0 0.00 0.00 0.00 84 1009.3
20260506101015 57 158 4.0 11.0 0.00 0.00 0.00 84 1009.4
20260506100508 57 211 5.0 11.0 0.00 0.00 0.00 84 1009.5
20260506100026 57 198 5.0 10.0 0.00 0.00 0.00 84 1009.5
20260506095506 57 221 3.0 9.0 0.00 0.00 0.00 84 1009.4
20260506095011 57 208 5.0 11.0 0.00 0.00 0.00 83 1009.5
20260506094520 57 217 5.0 11.0 0.00 0.00 0.00 84 1009.3
20260506094003 57 195 4.0 8.0 0.00 0.00 0.00 83 1009.4
20260506093504 57 188 3.0 8.0 0.00 0.00 0.00 83 1009.5
20260506093012 57 223 1.0 8.0 0.00 0.00 0.00 83 1009.6
20260506092505 57 238 3.0 10.0 0.00 0.00 0.00 83 1009.5
20260506092007 57 188 3.0 10.0 0.00 0.00 0.00 82 1009.5
20260506091508 57 178 3.0 9.0 0.00 0.00 0.00 82 1009.4
20260506091008 57 193 3.0 11.0 0.00 0.00 0.00 82 1009.4
20260506090506 58 211 4.0 11.0 0.00 0.00 0.00 82 1009.4
20260506090016 58 183 3.0 10.0 0.00 0.00 0.00 81 1009.5
20260506085506 58 192 4.0 11.0 0.00 0.00 0.00 81 1009.4
20260506085007 58 167 4.0 11.0 0.00 0.00 0.00 81 1009.4
20260506084520 58 190 3.0 9.0 0.00 0.00 0.00 81 1009.4
20260506083509 58 213 5.0 9.0 0.00 0.00 0.00 80 1009.6
20260506082508 59 204 3.0 12.0 0.00 0.00 0.00 79 1009.5
20260506082007 59 200 3.0 10.0 0.00 0.00 0.00 79 1009.6
20260506081508 59 175 4.0 11.0 0.00 0.00 0.00 79 1009.5
20260506081011 59 201 6.0 13.0 0.00 0.00 0.00 79 1009.4
20260506080507 59 185 6.0 13.0 0.00 0.00 0.00 79 1009.5
20260506073514 59 177 3.0 11.0 0.00 0.00 0.00 78 1009.5
20260506073024 59 200 5.0 10.0 0.00 0.00 0.00 78 1009.5
20260506072509 59 207 5.0 9.0 0.00 0.00 0.00 77 1009.6
20260506072015 60 174 4.0 9.0 0.00 0.00 0.00 77 1009.5
20260506071508 60 186 4.0 10.0 0.00 0.00 0.00 77 1009.5
20260506071005 60 194 4.0 10.0 0.00 0.00 0.00 76 1009.4
20260506070503 60 187 5.0 10.0 0.00 0.00 0.00 76 1009.4
20260506062507 61 202 7.0 10.0 0.00 0.00 0.00 72 1009.0
20260506062011 61 184 5.0 10.0 0.00 0.00 0.00 72 1009.1
20260506061525 61 156 4.0 10.0 0.00 0.00 0.00 71 1009.1
20260506061010 61 193 5.0 9.0 0.00 0.00 0.00 71 1009.1
20260506060503 61 181 4.0 9.0 0.00 0.00 0.00 71 1009.1
20260506051008 62 154 5.0 14.0 0.00 0.00 0.00 68 1009.3
20260506050509 62 186 7.0 13.0 0.00 0.00 0.00 68 1009.2
20260506045005 62 180 4.0 11.0 0.00 0.00 0.00 68 1009.4
20260506044517 62 201 3.0 12.0 0.00 0.00 0.00 67 1009.3
20260506044008 62 193 5.0 12.0 0.00 0.00 0.00 67 1009.3
20260506043511 62 205 4.0 12.0 0.00 0.00 0.00 67 1009.3
20260506043016 63 159 6.0 12.0 0.00 0.00 0.00 67 1009.3
20260506042508 63 192 6.0 11.0 0.00 0.00 0.00 67 1009.3
20260506042012 63 202 5.0 11.0 0.00 0.00 0.00 67 1009.3
20260506041524 63 200 5.0 12.0 0.00 0.00 0.00 66 1009.4
20260506041010 63 168 5.0 12.0 0.00 0.00 0.00 66 1009.5
20260506040511 63 216 3.0 10.0 0.00 0.00 0.00 66 1009.4
20260506040024 63 186 3.0 13.0 0.00 0.00 0.00 66 1009.4
20260506035509 63 152 6.0 13.0 0.00 0.00 0.00 66 1009.4
20260506035010 63 185 4.0 14.0 0.00 0.00 0.00 66 1009.4
20260506034511 63 144 6.0 14.0 0.00 0.00 0.00 65 1009.3
20260506034009 63 176 7.0 14.0 0.00 0.00 0.00 65 1009.4
20260506033506 63 195 6.0 12.0 0.00 0.00 0.00 65 1009.4
20260506033016 63 205 6.0 14.0 0.00 0.00 0.00 65 1009.4
20260506032509 63 161 7.0 14.0 0.00 0.00 0.00 65 1009.5
20260506032011 63 165 5.0 11.0 0.00 0.00 0.00 64 1009.5
20260506031522 63 185 5.0 11.0 0.00 0.00 0.00 64 1009.4
20260506031008 63 170 3.0 14.0 0.00 0.00 0.00 64 1009.6
20260506030509 63 177 8.0 14.0 0.00 0.00 0.00 63 1009.5
20260506030022 64 173 6.0 13.0 0.00 0.00 0.00 63 1009.6
20260506025513 64 150 4.0 15.0 0.00 0.00 0.00 63 1009.5
20260506025010 64 208 6.0 15.0 0.00 0.00 0.00 63 1009.5
20260506024526 64 163 4.0 11.0 0.00 0.00 0.00 62 1009.4
20260506024011 64 173 5.0 12.0 0.00 0.00 0.00 62 1009.4
20260506023511 64 196 6.0 12.0 0.00 0.00 0.00 62 1009.3
20260506023013 65 225 4.0 12.0 0.00 0.00 0.00 61 1009.3
20260506022505 65 132 6.0 11.0 0.00 0.00 0.00 61 1009.3
20260506022008 65 200 5.0 13.0 0.00 0.00 0.00 61 1009.3
20260506021519 65 175 5.0 13.0 0.00 0.00 0.00 61 1009.1
20260506021008 65 224 6.0 12.0 0.00 0.00 0.00 61 1009.2
20260506020508 65 181 5.0 12.0 0.00 0.00 0.00 61 1009.1
20260506020030 65 174 5.0 12.0 0.00 0.00 0.00 60 1009.0
20260506015509 66 178 6.0 12.0 0.00 0.00 0.00 60 1009.0
20260506015013 66 119 5.0 12.0 0.00 0.00 0.00 61 1009.0
20260506014525 66 168 7.0 12.0 0.00 0.00 0.00 61 1009.0
20260506014010 66 167 6.0 9.0 0.00 0.00 0.00 60 1009.0
20260506013511 66 177 5.0 9.0 0.00 0.00 0.00 60 1009.0
20260506013030 66 175 5.0 11.0 0.00 0.00 0.00 60 1008.9
20260506012509 66 185 4.0 12.0 0.00 0.00 0.00 60 1008.9
20260506012007 67 159 6.0 16.0 0.00 0.00 0.00 59 1008.8
20260506011516 67 181 4.0 16.0 0.00 0.00 0.00 59 1008.8
20260506011007 67 188 6.0 17.0 0.00 0.00 0.00 58 1008.8
20260506010507 67 209 7.0 16.0 0.00 0.00 0.00 58 1008.7
20260506010025 67 206 5.0 16.0 0.00 0.00 0.00 58 1008.7
20260506005511 68 179 6.0 16.0 0.00 0.00 0.00 57 1008.6
20260506005009 68 221 9.0 16.0 0.00 0.00 0.00 56 1008.6
20260506004525 68 191 8.0 17.0 0.00 0.00 0.00 56 1008.6
20260506004010 69 204 9.0 16.0 0.00 0.00 0.00 56 1008.6
20260506003513 69 179 8.0 14.0 0.00 0.00 0.00 56 1008.5
20260506003026 69 185 7.0 20.0 0.00 0.00 0.00 56 1008.4
20260506002510 69 186 8.0 20.0 0.00 0.00 0.00 55 1008.2
20260506002011 69 186 9.0 16.0 0.00 0.00 0.00 55 1008.2
20260506001528 69 182 6.0 15.0 0.00 0.00 0.00 55 1008.1
20260506001006 70 201 7.0 15.0 0.00 0.00 0.00 55 1008.0
20260506000508 70 210 8.0 17.0 0.00 0.00 0.00 54 1007.8
20260506000028 70 176 7.0 17.0 0.00 0.00 0.00 54 1007.7
20260505235511 70 211 6.0 17.0 0.00 0.00 0.00 54 1007.5
20260505235007 71 150 6.0 13.0 0.00 0.00 0.00 54 1007.4
20260505234524 71 184 7.0 15.0 0.00 0.00 0.00 53 1007.3
20260505234010 71 186 6.0 16.0 0.00 0.00 0.00 53 1007.2
20260505233509 71 229 9.0 16.0 0.00 0.00 0.00 53 1007.2
20260505233024 72 159 5.0 16.0 0.00 0.00 0.00 52 1007.1
20260505232508 72 153 9.0 17.0 0.00 0.00 0.00 52 1007.0
20260505232009 72 168 8.0 23.0 0.00 0.00 0.00 51 1006.9
20260505231529 73 170 12.0 23.0 0.00 0.00 0.00 51 1006.9
20260505231010 73 186 10.0 16.0 0.00 0.00 0.00 50 1006.8
20260505230510 73 153 7.0 23.0 0.00 0.00 0.00 50 1006.7
20260505230029 73 180 6.0 23.0 0.00 0.00 0.00 49 1006.7
20260505225508 73 225 13.0 23.0 0.00 0.00 0.00 49 1006.6
20260505225007 74 144 8.0 18.0 0.00 0.00 0.00 49 1006.6
20260505224524 74 194 7.0 21.0 0.00 0.00 0.00 48 1006.6
20260505224008 74 190 6.0 22.0 0.00 0.00 0.00 48 1006.5
20260505223509 75 148 10.0 22.0 0.00 0.00 0.00 47 1006.5
20260505223026 75 168 9.0 21.0 0.00 0.00 0.00 48 1006.4
20260505222513 76 191 7.0 22.0 0.00 0.00 0.00 46 1006.3
20260505222015 76 159 10.0 22.0 0.00 0.00 0.00 46 1006.2
20260505221528 76 360 12.0 21.0 0.00 0.00 0.00 45 1006.2
20260505221012 76 181 9.0 22.0 0.00 0.00 0.00 45 1006.1
20260505220510 77 145 13.0 22.0 0.00 0.00 0.00 45 1006.1
20260505220027 77 194 13.0 23.0 0.00 0.00 0.00 45 1006.1
20260505215507 77 240 13.0 23.0 0.00 0.00 0.00 44 1006.0
20260505215006 77 168 9.0 23.0 0.00 0.00 0.00 44 1006.1
20260505214520 77 211 10.0 24.0 0.00 0.00 0.00 45 1005.8
20260505214009 78 188 14.0 24.0 0.00 0.00 0.00 44 1005.8
20260505213513 78 177 8.0 21.0 0.00 0.00 0.00 44 1005.6
20260505213027 78 210 11.0 21.0 0.00 0.00 0.00 44 1005.5
20260505212509 78 150 11.0 27.0 0.00 0.00 0.00 44 1005.5
20260505212013 79 223 16.0 27.0 0.00 0.00 0.00 43 1005.6
20260505211532 79 200 13.0 26.0 0.00 0.00 0.00 42 1005.6
20260505211008 79 271 12.0 23.0 0.00 0.00 0.00 43 1005.6
20260505210511 79 211 11.0 22.0 0.00 0.00 0.00 42 1005.7
20260505210027 79 213 9.0 28.0 0.00 0.00 0.00 43 1005.6
20260505205517 79 166 15.0 28.0 0.00 0.00 0.00 42 1005.7
20260505205011 80 174 10.0 23.0 0.00 0.00 0.00 43 1005.6
20260505204528 80 162 12.0 21.0 0.00 0.00 0.00 42 1005.5
20260505204008 80 168 7.0 17.0 0.00 0.00 0.00 42 1005.4
20260505203508 81 220 9.0 17.0 0.00 0.00 0.00 41 1005.4
20260505203020 80 184 6.0 22.0 0.00 0.00 0.00 43 1005.4
20260505202508 81 180 12.0 23.0 0.00 0.00 0.00 41 1005.4
20260505202012 80 209 10.0 23.0 0.00 0.00 0.00 41 1005.4
20260505201524 80 223 12.0 24.0 0.00 0.00 0.00 41 1005.5
20260505201010 80 189 13.0 24.0 0.00 0.00 0.00 40 1005.6
20260505200511 80 197 9.0 21.0 0.00 0.00 0.00 40 1005.6
20260505200028 81 198 13.0 25.0 0.00 0.00 0.00 40 1005.7
20260505195509 82 239 9.0 25.0 0.00 0.00 0.00 40 1005.6
20260505195010 82 205 9.0 26.0 0.00 0.00 0.00 40 1005.6
20260505194527 82 146 13.0 26.0 0.00 0.00 0.00 39 1005.5
20260505194012 81 250 12.0 25.0 0.00 0.00 0.00 41 1005.5
20260505193512 81 179 13.0 24.0 0.00 0.00 0.00 41 1005.4
20260505193022 82 175 13.0 21.0 0.00 0.00 0.00 40 1005.5
20260505192509 82 163 13.0 20.0 0.00 0.00 0.00 39 1005.6
20260505192009 82 213 7.0 28.0 0.00 0.00 0.00 40 1005.7
20260505191531 82 232 12.0 28.0 0.00 0.00 0.00 38 1005.7
20260505191008 82 159 10.0 26.0 0.00 0.00 0.00 41 1005.6
20260505190508 82 193 13.0 26.0 0.00 0.00 0.00 40 1005.7
20260505190026 82 214 10.0 28.0 0.00 0.00 0.00 40 1005.9
20260505185514 82 219 16.0 28.0 0.00 0.00 0.00 37 1006.0
20260505185011 83 217 11.0 25.0 0.00 0.00 0.00 37 1006.0
20260505184530 83 213 13.0 25.0 0.00 0.00 0.00 38 1006.2
20260505184011 83 209 12.0 25.0 0.00 0.00 0.00 38 1006.1
20260505183511 81 173 9.0 20.0 0.00 0.00 0.00 42 1006.3
20260505183027 81 183 8.0 23.0 0.00 0.00 0.00 41 1006.0
20260505182509 81 186 10.0 23.0 0.00 0.00 0.00 41 1006.2
20260505182013 81 188 12.0 22.0 0.00 0.00 0.00 41 1006.2
20260505181524 82 178 9.0 20.0 0.00 0.00 0.00 41 1006.2
20260505181011 82 207 9.0 27.0 0.00 0.00 0.00 42 1006.3
20260505180510 82 234 8.0 27.0 0.00 0.00 0.00 42 1006.4
20260505180026 81 188 12.0 20.0 0.00 0.00 0.00 41 1006.4
20260505175513 81 203 12.0 25.0 0.00 0.00 0.00 43 1006.5
20260505175009 81 186 13.0 25.0 0.00 0.00 0.00 41 1006.7